Tracking 28794 objects as of 19-Apr-2024
HD Live streaming from Space Station
objects crossing your sky now

OPS 9314 (IDSCS 4)

Track OPS 9314 (IDSCS 4) now!
OPS 9314 (IDSCS 4) is classified as:


NORAD ID: 2218
Int'l Code: 1966-053E
Perigee: 33,695.1 km
Apogee: 34,025.7 km
Inclination: 7.1 °
Period: 1,338.5 minutes
Semi major axis: 40231 km
RCS: 0.1 m2 (medium)
Launch date: June 16, 1966
Source: United States (US)
Launch site: AIR FORCE EASTERN TEST RANGE (AFETR)
Your satellite tracking list
Your tracking list is empty




NASA's NSSDC Master Catalog

Two Line Element Set (TLE):
1 02218U 66053E   24110.30837065 -.00000100  00000-0  00000-0 0  9995
2 02218   7.0749  51.5617 0041086 177.4346  22.4700  1.07585727226915
Source of the keplerian elements: AFSPC